Regional Weather Roundup
Issued by NWS

Home | Current Version | Previous Version | Graphics & Text | Print | Product List | Glossary On
Versions: 1 2 3 4 5 6 7 8 9 10 11 12 13 14 15 16 17 18 19 20 21 22 23 24 25 26 27 28 29 30 31 32 33 34 35 36 37 38 39 40 41 42 43 44 45 46 47 48 49 50
000
ASUS43 KDMX 111901
RWRIA

WEATHER ROUNDUP FOR IOWA
NATIONAL WEATHER SERVICE DES MOINES IA
100 PM CST MON DEC 11 2017

NOTE: "FAIR" INDICATES FEW OR NO CLOUDS BELOW 12,000 FEET WITH NO
SIGNIFICANT WEATHER AND/OR OBSTRUCTIONS TO VISIBILITY.

* - THESE STATIONS ARE NOT NWS STATIONS...THUS NOT UNDER NWS
QUALITY CONTROL.  THEY ALSO DO NOT REPORT WEATHER SUCH
AS PRECIPITATION OR FOG.

IAZ001>003-012>014-020>022-031>034-043>046-112000-
   NORTHWEST IOWA

CITY           SKY/WX    TMP DP  RH WIND       PRES   REMARKS
CARROLL *      CLOUDY    41  34  75 NW31G46   29.90R
CHEROKEE *     CLOUDY    39  34  82 NW22G38   29.94R WCI  28
DENISON *      CLOUDY    43  32  65 NW29G41   29.95R
LE MARS *      CLOUDY    41  34  75 NW28G37   29.98R
ORANGE CITY *  CLOUDY    39  36  87 N22G31    29.96R WCI  29
SHELDON *      CLOUDY    37  32  81 NW31G43   29.94R WCI  25
SIOUX CITY     CLOUDY    42  35  76 N26G33    29.98R
SPENCER        CLOUDY    37  32  82 NW31G39   29.91R WCI  24
STORM LAKE *   CLOUDY    39  32  75 NW31G38   29.91R WCI  27
$$

IAZ055>058-069>071-079>083-090>094-112000-
   SOUTHWEST IOWA

CITY           SKY/WX    TMP DP  RH WIND       PRES   REMARKS
ATLANTIC *     CLOUDY    45  34  65 NW23G36   29.93R
AUDUBON *      CLOUDY    43  34  70 NW18G37   29.91R
CLARINDA *     CLOUDY    48  32  53 NW30G45     N/A
COUNCIL BLFS * CLOUDY    46  34  61 NW23G36   29.96R
CRESTON *      CLOUDY    45  32  61 NW26G40   29.90R
HARLAN  *      CLOUDY    45  34  65 NW28G41   29.96R
LAMONI         CLOUDY    46  31  55 NW28G40   29.87S
RED OAK *      CLOUDY    48  32  53 NW24G36   29.96R
SHENANDOAH *   CLOUDY    48  32  53 NW20G35   29.98S
$$

IAZ047>049-059>061-072>074-084-112000-
   CENTRAL IOWA

CITY           SKY/WX    TMP DP  RH WIND       PRES   REMARKS
AMES           CLOUDY    41  35  79 NW23G33   29.83R
ANKENY *       CLOUDY    43  34  70 NW24G33   29.84R
BOONE *        CLOUDY    41  34  75 NW24G35   29.83R
CHARITON *     CLOUDY    45  30  57 NW25G41   29.82S
DES MOINES     LGT RAIN  44  32  62 NW24G37   29.83R
GRINNELL*      DRIZZLE   41  32  71 NW28G35   29.78R
KNOXVILLE *    CLOUDY    43  30  61 NW28G35   29.80R
MARSHALLTOWN   LGT RAIN  38  35  89 NW22G29   29.78R WCI  27
NEWTON *       CLOUDY    43  32  65 NW24G41   29.79R
PELLA *        CLOUDY    43  32  65 NW25G33   29.81R
PERRY *        CLOUDY    42  31  64 NW24G36   29.86S
$$

IAZ004>006-015-016-023>025-035-036-112000-
   NORTH CENTRAL IOWA

CITY           SKY/WX    TMP DP  RH WIND       PRES   REMARKS
ALGONA *       CLOUDY    37  36  93 NW35G43   29.86R WCI  24
CLARION *      CLOUDY    39  36  87 NW26G37   29.82R WCI  28
ESTHERVILLE    CLOUDY    35  32  88 N33G43    29.89R WCI  21
FORT DODGE *   LGT RAIN  38  34  85 NW17G26   29.86R WCI  28
MASON CITY     CLOUDY    37  31  78 NW26G38   29.80R WCI  25
FOREST CITY *  DRIZZLE   36  34  93 NW22G32   29.82R WCI  24
WEBSTER CITY * MIX PCPN  39  34  81 NW24G38   29.82R WCI  28
IOWA FALLS *   CLOUDY    39  35  87 NW25G31   29.79R WCI  27
$$

IAZ007>011-017>019-026>030-037>042-050>054-066-112000-
   NORTHEAST IOWA

CITY           SKY/WX    TMP DP  RH WIND       PRES   REMARKS
CEDAR RAPIDS   PTSUNNY   44  27  51 NW22      29.70R
CHARLES CITY * CLOUDY    36  36 100 NW15      29.75S WCI  26
CLINTON *      CLOUDY    41  27  57 N9        29.67S
DECORAH *      LGT SNOW  32  30  93 NW5       29.71S VSB 3/4 WCI  27
DUBUQUE        LGT SNOW  32  27  81 N13       29.68F VSB 1   WCI  22
MONTICELLO *   CLOUDY    37  27  65 NW9       29.69R WCI  31
OELWEIN *      LGT SNOW  32  32 100 NW14      29.73R VSB 3/4 WCI  22
WATERLOO       LGT SNOW  33  31  92 NW17      29.75R FOG     WCI  22
$$

IAZ064-065-067-068-078-112000-
   EAST CENTRAL IOWA

CITY           SKY/WX    TMP DP  RH WIND       PRES   REMARKS
DAVENPORT      CLOUDY    43  26  51 NW10      29.68R
IOWA CITY      MOSUNNY   45  26  47 NW18G25   29.72R
MT. PLEASANT * MOSUNNY   46  26  46 W24G33    29.72S
MUSCATINE *    CLOUDY    45  25  45 NW23G31   29.70R
QUAD CITIES    CLOUDY    44  27  51 W14       29.65S
$$

IAZ062-063-075>077-085>089-095>099-112000-
   SOUTHEAST IOWA

CITY           SKY/WX    TMP DP  RH WIND       PRES   REMARKS
BURLINGTON     MOSUNNY   47  26  44 NW22G33   29.70R
FAIRFIELD *      N/A     46  28  49 NW25G40   29.73R
FORT MADISON * SUNNY     48  28  46 NW25G37   29.72R
KEOKUK *       SUNNY     50  27  40 NW22G37   29.72R
OSKALOOSA *    CLOUDY    44  32  63 NW30G40   29.78R
OTTUMWA        LGT RAIN  45  31  58 NW24G38   29.77R
WASHINGTON *   CLOUDY    45  28  53 NW30G37   29.73R
$$

ABBREVIATIONS USED IN REMARKS
   TC - TEMPERATURES IN CELSIUS
  WCI - WIND CHILL INDEX
   HX - HEAT INDEX
  VSB - VISIBILITY
$$




USA.gov is the U.S. government's official web portal to all federal, state and local government web resources and services.